Le nostre stazioni meteo in Italia

Pubblicità
Il mio iltempo24.it
Lulea/Kallax, Svezia (2186): Temperatura & dewpoint: 30.06.2020 00:00:00 - 06.07.2020 00:00:00 (CEST)Lulea/Kallax, Svezia (2186): velocità del vento & gusts: 30.06.2020 00:00:00 - 06.07.2020 00:00:00 (CEST)Lulea/Kallax, Svezia (2186): direzione del vento: 30.06.2020 00:00:00 - 06.07.2020 00:00:00 (CEST)Lulea/Kallax, Svezia (2186): reduced air pressure: 30.06.2020 00:00:00 - 06.07.2020 00:00:00 (CEST)Lulea/Kallax, Svezia (2186): visibility: 30.06.2020 00:00:00 - 06.07.2020 00:00:00 (CEST)Lulea/Kallax, Svezia (2186): precipitazioni: 30.06.2020 00:00:00 - 06.07.2020 00:00:00 (CEST)
Data & Tempo tt [°C] td [°C] ff [km/h] ff [kn] fx [km/h] fx [kn] dd ppp [hPa] vv [km] rr [mm]
06.07.2020 00:00:00 - - - - - - - - - -
05.07.2020 23:00:00 10,8 8,2 0 0 11 6 N 993,6 10 0,0
05.07.2020 22:00:00 12,2 8,9 9 5 22 12 S 994,3 10 0,0
05.07.2020 21:00:00 12,6 9,1 15 8 25 14 S 994,9 10 0,0
05.07.2020 20:00:00 13,2 9,4 18 10 36 19 SSO 995,4 10 0,0
05.07.2020 19:00:00 13,3 8,6 24 13 32 18 S 995,9 10 0,0
05.07.2020 18:00:00 14,2 8,2 18 10 25 14 S 996,2 10 0,0
05.07.2020 17:00:00 16,8 6,6 13 7 22 12 E 996,2 10 0,0
05.07.2020 16:00:00 16,3 5,9 9 5 32 18 ONO 996,7 10 0,0
05.07.2020 15:00:00 15,2 5,1 15 8 32 18 ONO 997,3 10 0,0
05.07.2020 14:00:00 14,0 6,1 16 9 40 21 ONO 997,2 10 0,0
05.07.2020 13:00:00 15,0 6,8 26 14 47 25 NO 996,6 10 0,0
05.07.2020 12:00:00 13,6 7,4 29 16 43 23 NNO 996,8 10 0,0
05.07.2020 11:00:00 11,6 7,3 34 18 47 25 NNO 996,4 10 0,0
05.07.2020 10:00:00 10,2 8,0 28 15 40 21 NO 996,1 10 0,0
05.07.2020 09:00:00 9,7 8,0 29 16 40 21 NO 995,8 10 0,4
05.07.2020 08:00:00 9,5 8,3 24 13 36 19 NO 995,3 10 0,7
05.07.2020 07:00:00 8,7 7,9 13 7 22 12 O 995,2 10 0,3
05.07.2020 06:00:00 8,7 7,6 13 7 22 12 O 995,2 10 0,0
05.07.2020 05:00:00 8,1 7,1 9 5 14 8 O 995,5 10 0,0
05.07.2020 04:00:00 6,7 6,3 5 3 7 4 ONO 995,5 10 0,0
05.07.2020 03:00:00 6,6 6,2 4 2 11 6 O 995,6 10 0,0
05.07.2020 02:00:00 7,9 7,5 4 2 7 4 NNO 995,7 10 0,0
05.07.2020 01:00:00 8,5 8,1 4 2 11 6 NNO 995,9 10 0,0
05.07.2020 00:00:00 7,9 7,5 5 3 7 4 NO 996,2 10 0,0
04.07.2020 23:00:00 9,1 8,5 2 1 11 6 NNE 996,2 10 0,0
04.07.2020 22:00:00 10,5 8,4 8 4 14 8 SSE 996,5 10 0,0
04.07.2020 21:00:00 10,7 8,1 5 3 14 8 SSE 996,9 10 0,0
04.07.2020 20:00:00 10,4 8,2 11 6 14 8 SSE 997,3 10 0,0
04.07.2020 19:00:00 9,7 8,1 5 3 14 8 ESE 997,9 10 1,0
04.07.2020 18:00:00 9,5 7,6 11 6 22 12 S 998,7 10 5,0
04.07.2020 17:00:00 11,1 10,0 15 8 22 12 E 998,9 10 1,0
04.07.2020 16:00:00 10,8 9,6 13 7 18 10 E 999,5 10 1,0
04.07.2020 15:00:00 10,8 9,6 8 4 14 8 E 1000,2 10 4,0
04.07.2020 14:00:00 11,2 8,8 8 4 14 8 E 1000,4 10 0,2
04.07.2020 13:00:00 10,8 8,7 8 4 25 14 E 1001,2 10 2,0
04.07.2020 12:00:00 10,8 8,4 22 12 32 18 S 1001,8 10 1,0
04.07.2020 11:00:00 13,0 7,9 13 7 18 10 SSE 1001,3 10 0,0
04.07.2020 10:00:00 12,9 7,1 9 5 18 10 SSE 1001,4 10 0,0
04.07.2020 09:00:00 13,6 7,1 8 4 14 8 SSO 1001,9 10 0,0
04.07.2020 08:00:00 12,9 6,9 5 3 14 8 O 1001,8 10 0,0
04.07.2020 07:00:00 11,7 6,6 8 4 22 12 O 1001,9 10 0,0
04.07.2020 06:00:00 10,6 7,3 11 6 18 10 OSO 1001,9 10 0,0
04.07.2020 05:00:00 9,7 7,3 11 6 25 14 O 1001,7 10 0,0
04.07.2020 04:00:00 9,3 7,3 15 8 25 14 O 1001,4 10 0,0
04.07.2020 03:00:00 8,8 7,2 15 8 25 14 O 1000,9 10 0,0
04.07.2020 02:00:00 8,7 7,3 18 10 32 18 O 1000,4 10 0,0
04.07.2020 01:00:00 8,8 7,2 18 10 32 18 O 1000,2 10 0,0
04.07.2020 00:00:00 9,4 6,7 18 10 36 19 OSO 999,7 10 0,0
03.07.2020 23:00:00 9,4 7,5 22 12 36 19 OSO 999,2 10 0,0
03.07.2020 22:00:00 9,8 7,4 22 12 36 19 SO 998,5 10 0,0
03.07.2020 21:00:00 10,2 7,4 18 10 32 18 SSO 998,3 10 0,0
03.07.2020 20:00:00 10,5 7,7 16 9 32 18 SSO 998,2 10 0,0
03.07.2020 19:00:00 11,3 8,5 21 11 32 18 SO 998,0 10 0,0
03.07.2020 18:00:00 12,9 9,5 13 7 25 14 SO 997,5 10 0,0
03.07.2020 17:00:00 14,2 10,6 13 7 32 18 OSO 997,2 10 0,0
03.07.2020 16:00:00 14,0 12,2 22 12 32 18 S 996,9 10 2,0
03.07.2020 15:00:00 14,0 12,0 16 9 25 14 SE 997,1 10 0,0
03.07.2020 14:00:00 13,5 12,4 15 8 29 16 ESE 997,2 10 3,0
03.07.2020 13:00:00 13,6 12,3 13 7 25 14 E 997,4 10 0,0
03.07.2020 12:00:00 12,2 11,1 18 10 36 19 E 998,0 10 6,0
03.07.2020 11:00:00 10,6 9,8 15 8 32 18 ENE 998,3 4,4 7,0
03.07.2020 10:00:00 11,0 8,9 15 8 32 18 ENE 998,6 10 0,5
03.07.2020 09:00:00 11,2 7,9 15 8 32 18 ENE 999,5 10 0,1
03.07.2020 08:00:00 10,9 7,6 15 8 25 14 NNE 1000,1 10 0,4
03.07.2020 07:00:00 10,2 7,4 15 8 25 14 NNE 1000,8 10 0,9
03.07.2020 06:00:00 10,5 7,8 5 3 18 10 NE 1001,7 10 0,8
03.07.2020 05:00:00 10,1 7,7 8 4 18 10 NNE 1002,1 10 2,0
03.07.2020 04:00:00 11,4 6,2 9 5 14 8 ENE 1002,6 10 0,8
03.07.2020 03:00:00 12,0 5,9 5 3 14 8 NE 1002,7 10 0,2
03.07.2020 02:00:00 11,9 5,4 9 5 32 18 ENE 1003,0 10 0,4
03.07.2020 01:00:00 14,3 3,7 18 10 32 18 SSE 1002,9 10 0,0
03.07.2020 00:00:00 14,1 8,6 8 4 18 10 S 1002,4 10 0,0
02.07.2020 23:00:00 13,7 9,1 11 6 22 12 SSO 1002,3 10 0,0
02.07.2020 22:00:00 13,9 8,9 13 7 25 14 SSO 1002,4 10 0,0
02.07.2020 21:00:00 14,4 8,2 18 10 25 14 S 1002,1 10 0,0
02.07.2020 20:00:00 14,8 8,2 21 11 32 18 S 1001,9 10 0,0
02.07.2020 19:00:00 15,7 6,1 22 12 36 19 S 1001,8 10 0,0
02.07.2020 18:00:00 16,3 3,7 8 4 32 18 - 1001,4 10 0,0
02.07.2020 17:00:00 16,6 -0,6 13 7 32 18 O 1001,1 10 0,0
02.07.2020 16:00:00 17,2 -0,2 16 9 32 18 ONO 1000,8 10 0,0
02.07.2020 15:00:00 17,6 0,3 13 7 29 16 ONO 1000,3 10 0,0
02.07.2020 14:00:00 15,9 -0,4 18 10 29 16 ONO 1000,0 10 0,0
02.07.2020 13:00:00 15,6 1,0 15 8 32 18 O 999,5 10 0,0
02.07.2020 12:00:00 14,7 1,2 18 10 36 19 O 999,1 10 0,0
02.07.2020 11:00:00 14,8 1,3 21 11 36 19 ONO 998,7 10 0,0
02.07.2020 10:00:00 13,9 1,5 18 10 32 18 O 998,2 10 0,0
02.07.2020 09:00:00 12,7 2,3 18 10 29 16 O 997,6 10 0,0
02.07.2020 08:00:00 11,8 2,3 22 12 32 18 NO 997,0 10 0,0
02.07.2020 07:00:00 10,9 2,2 21 11 32 18 ONO 996,3 10 0,0
02.07.2020 06:00:00 9,8 2,6 18 10 29 16 O 995,9 10 0,0
02.07.2020 05:00:00 8,8 2,6 16 9 22 12 O 995,6 10 0,0
02.07.2020 04:00:00 8,3 2,1 15 8 22 12 O 995,3 10 0,0
02.07.2020 03:00:00 8,6 1,5 13 7 22 12 O 994,6 10 0,0
02.07.2020 02:00:00 9,0 1,9 15 8 22 12 ONO 994,1 10 0,0
02.07.2020 01:00:00 9,7 2,1 11 6 18 10 O 993,6 10 0,0
02.07.2020 00:00:00 10,6 1,7 9 5 25 14 O 992,9 10 0,0
01.07.2020 23:00:00 12,5 0,9 18 10 25 14 ONO 992,2 10 0,0
01.07.2020 22:00:00 13,6 0,6 18 10 32 18 ONO 991,5 10 0,0
01.07.2020 21:00:00 15,0 1,5 26 14 40 21 ONO 990,7 10 0,0
01.07.2020 20:00:00 16,3 2,3 22 12 32 18 O 989,9 10 0,0
01.07.2020 19:00:00 16,7 3,4 15 8 36 19 O 989,3 10 0,0
01.07.2020 18:00:00 17,3 3,2 15 8 32 18 O 988,7 10 0,0
01.07.2020 17:00:00 17,9 4,1 16 9 25 14 O 988,1 10 0,0
01.07.2020 16:00:00 17,5 5,1 13 7 25 14 ONO 987,7 10 0,0
01.07.2020 15:00:00 17,1 6,0 11 6 22 12 O 987,3 10 0,0
01.07.2020 14:00:00 16,6 6,1 15 8 25 14 NNO 986,8 10 0,0
01.07.2020 13:00:00 16,0 6,1 18 10 36 19 NO 986,4 10 0,0
01.07.2020 12:00:00 14,9 6,5 26 14 40 21 NNO 986,0 10 0,0
01.07.2020 11:00:00 13,2 7,2 24 13 36 19 NO 985,6 10 0,0
01.07.2020 10:00:00 11,8 6,5 28 15 40 21 NO 985,1 10 0,0
01.07.2020 09:00:00 11,4 6,5 24 13 40 21 NNO 984,5 10 0,0
01.07.2020 08:00:00 10,5 6,4 24 13 40 21 NO 984,2 10 0,0
01.07.2020 07:00:00 10,1 6,6 29 16 36 19 NO 983,8 10 0,0
01.07.2020 06:00:00 9,6 6,9 26 14 40 21 NO 983,6 10 0,0
01.07.2020 05:00:00 9,7 7,5 28 15 40 21 NO 983,4 10 0,0
01.07.2020 04:00:00 9,8 7,5 26 14 40 21 NNO 983,3 10 0,0
01.07.2020 03:00:00 10,2 8,1 29 16 40 21 NNO 983,4 10 0,0
01.07.2020 02:00:00 11,0 9,3 25 14 40 21 NNO 983,7 50 0,0
01.07.2020 01:00:00 12,1 10,7 24 13 36 19 NNO 983,6 10 0,0
01.07.2020 00:00:00 13,1 12,0 21 11 29 16 NNO 983,5 10 0,0
30.06.2020 23:00:00 14,0 13,0 16 9 25 14 NNO 983,8 10 0,0
30.06.2020 22:00:00 15,1 13,1 8 4 14 8 NE 984,4 10 0,2
30.06.2020 21:00:00 16,0 13,8 4 2 14 8 - 984,8 10 0,0
30.06.2020 20:00:00 16,4 13,7 9 5 22 12 ESE 985,3 10 0,0
30.06.2020 19:00:00 17,0 14,1 18 10 22 12 SE 984,8 10 0,0
30.06.2020 18:00:00 16,9 14,4 18 10 22 12 SE 986,1 10 0,0
30.06.2020 17:00:00 18,4 14,3 13 7 22 12 SE 986,8 10 0,0
30.06.2020 16:00:00 18,5 15,0 16 9 25 14 SE 987,4 10 0,0
30.06.2020 15:00:00 17,8 14,5 18 10 25 14 SSE 988,1 10 0,0
30.06.2020 14:00:00 17,2 14,3 15 8 25 14 S 988,6 10 0,0
30.06.2020 13:00:00 16,6 14,2 18 10 32 18 S 989,2 10 0,0
30.06.2020 12:00:00 16,4 14,2 21 11 32 18 S 990,0 10 0,0
30.06.2020 11:00:00 15,6 13,8 18 10 29 16 S 990,7 10 0,0
30.06.2020 10:00:00 15,8 13,8 16 9 32 18 S 991,2 10 0,0
30.06.2020 09:00:00 16,3 14,3 22 12 32 18 S 991,6 10 0,0
30.06.2020 08:00:00 16,7 14,2 21 11 29 16 S 992,2 10 0,0
30.06.2020 07:00:00 16,5 14,0 16 9 29 16 SSO 992,9 10 0,0
30.06.2020 06:00:00 16,6 14,1 15 8 25 14 SSO 993,7 10 0,0
30.06.2020 05:00:00 15,8 14,2 13 7 22 12 SSO 994,4 10 0,0
30.06.2020 04:00:00 15,4 13,9 11 6 25 14 SSO 994,9 10 0,0
30.06.2020 03:00:00 15,7 14,4 16 9 29 16 SSO 996,1 10 0,0
30.06.2020 02:00:00 15,4 14,4 26 14 32 18 NNO 996,7 10 0,0
30.06.2020 01:00:00 14,8 14,0 22 12 43 23 S 997,8 9 0,0
30.06.2020 00:00:00 14,8 13,8 26 14 43 23 S 998,9 10 0,2

tt = Temperatura
td = dewpoint
ff = velocità del vento
fx = gusts
dd = direzione del vento
ppp = reduced air pressure
vv = visibility
rr = precipitazioni

Stazioni seguenti

WeatherPro
AMSI
MeteoEarth